STARLINK-32554 (62136 NORAD) Tracking and Keplerian Element Data

This shows tracking and keplerian element data for the satellite.

Feedback or suggestion? Click here.




ElementValue
Catalog62136
NameSTARLINK-32554
Epoch Orbit1179
Epoch Day34.91361717
Epoch Year2025
RAAN229.7902
Inclination43.0001
Eccentricity0.0001599
Argument of Perigee263.1266
Mean Anonmoly96.9409
Mean Motion15.4069347
Decay Rate-5.26E-06
L11 62136U 24222Y 25034.91361717 -.00000526 00000+0 -53302-5 0 9991
L22 62136 43.0001 229.7902 0001599 263.1266 96.9409 15.40693470 11793



Live tracking and technical data element details for STARLINK-32554 (NORAD 62136). STARLINK-32554 can be tracked NOW for your location showing map with azimuth and elevation plus other details from your city location.







IsCatalogInMostPopularTable: catalog: 62136, numindb: 16
Update: records affected: 1



GetName: 62136 STARLINK-32554

Hit Count: updated at: Sun, 18 May 2025 23:01:03 GMT